| time (UTC) | temp C | wind direction | speed KPH | gust KPH | rain 1hr cm | rain 24hr cm | rain mn cm | humidity % | barometer mb |
| 20260510193030 | 23 | 10 | 12.9 | 22.5 | 2.03 | 2.26 | 2.03 | 88 | 1015.9 |
| 20260510191525 | 26 | 12 | 12.9 | 32.2 | 0.71 | 0.94 | 0.71 | 86 | 1016.1 |
| 20260510190021 | 28 | 10 | 16.1 | 22.5 | 0.00 | 0.23 | 0.00 | 78 | 1015.0 |
| 20260510184520 | 28 | 46 | 14.5 | 20.9 | 0.00 | 0.23 | 0.00 | 76 | 1014.8 |
| 20260510183020 | 28 | 17 | 14.5 | 27.4 | 0.00 | 0.23 | 0.00 | 76 | 1015.3 |
| 20260510181529 | 28 | 31 | 17.7 | 25.7 | 0.00 | 0.23 | 0.00 | 75 | 1015.4 |
| 20260510180018 | 28 | 19 | 8.0 | 25.7 | 0.00 | 0.23 | 0.00 | 69 | 1015.5 |
| 20260510174518 | 31 | 301 | 1.6 | 11.3 | 0.00 | 0.23 | 0.00 | 59 | 1015.4 |
| 20260510173017 | 31 | 83 | 3.2 | 9.7 | 0.00 | 0.23 | 0.00 | 60 | 1015.6 |
| 20260510171516 | 31 | 34 | 3.2 | 11.3 | 0.00 | 0.23 | 0.00 | 59 | 1015.7 |
| 20260510170013 | 31 | 196 | 4.8 | 17.7 | 0.00 | 0.23 | 0.00 | 62 | 1015.8 |
| 20260510164515 | 30 | 234 | 8.0 | 24.1 | 0.00 | 0.23 | 0.00 | 65 | 1016.1 |
| 20260510163008 | 30 | 225 | 4.8 | 20.9 | 0.00 | 0.23 | 0.00 | 67 | 1016.5 |
| 20260510161505 | 30 | 235 | 8.0 | 14.5 | 0.00 | 0.23 | 0.00 | 69 | 1016.5 |
| 20260510160005 | 30 | 355 | 8.0 | 19.3 | 0.00 | 0.23 | 0.00 | 69 | 1016.5 |
| 20260510154501 | 29 | 238 | 9.7 | 17.7 | 0.00 | 0.23 | 0.00 | 70 | 1016.6 |
| 20260510153059 | 28 | 248 | 11.3 | 16.1 | 0.00 | 0.23 | 0.00 | 71 | 1016.6 |
| 20260510151603 | 28 | 232 | 3.2 | 14.5 | 0.00 | 0.23 | 0.00 | 71 | 1016.5 |
| 20260510144605 | 28 | 216 | 9.7 | 17.7 | 0.00 | 0.23 | 0.00 | 72 | 1016.4 |
| 20260510143059 | 27 | 234 | 11.3 | 19.3 | 0.00 | 0.23 | 0.00 | 76 | 1016.4 |
| 20260510141547 | 27 | 153 | 9.7 | 14.5 | 0.00 | 0.23 | 0.00 | 79 | 1016.2 |
| 20260510140043 | 26 | 32 | 11.3 | 16.1 | 0.00 | 0.23 | 0.00 | 81 | 1016.0 |
| 20260510134540 | 26 | 49 | 6.4 | 11.3 | 0.00 | 0.23 | 0.00 | 85 | 1015.7 |
| 20260510133036 | 25 | 41 | 6.4 | 12.9 | 0.00 | 0.23 | 0.00 | 87 | 1015.7 |
| 20260510131544 | 25 | 27 | 9.7 | 16.1 | 0.00 | 0.23 | 0.00 | 89 | 1015.7 |
| 20260510130029 | 24 | 19 | 11.3 | 16.1 | 0.00 | 0.23 | 0.00 | 92 | 1015.6 |
| 20260510124526 | 23 | 22 | 6.4 | 12.9 | 0.00 | 0.23 | 0.00 | 93 | 1015.6 |
| 20260510123023 | 23 | 15 | 4.8 | 8.0 | 0.00 | 0.23 | 0.00 | 93 | 1015.5 |
| 20260510121519 | 23 | 16 | 4.8 | 8.0 | 0.00 | 0.23 | 0.00 | 94 | 1015.3 |
| 20260510120017 | 23 | 17 | 4.8 | 12.9 | 0.00 | 0.23 | 0.00 | 94 | 1015.2 |
| 20260510114519 | 23 | 16 | 4.8 | 8.0 | 0.00 | 0.23 | 0.00 | 95 | 1014.7 |
| 20260510113019 | 22 | 19 | 3.2 | 8.0 | 0.00 | 0.23 | 0.00 | 95 | 1014.8 |
| 20260510111513 | 22 | 16 | 3.2 | 9.7 | 0.00 | 0.23 | 0.00 | 94 | 1014.4 |
| 20260510110010 | 22 | 18 | 4.8 | 8.0 | 0.00 | 0.23 | 0.00 | 95 | 1014.3 |
| 20260510104506 | 22 | 17 | 4.8 | 8.0 | 0.00 | 0.23 | 0.00 | 95 | 1014.0 |
| 20260510103006 | 22 | 15 | 3.2 | 8.0 | 0.00 | 0.23 | 0.00 | 95 | 1013.8 |
| 20260510101504 | 22 | 15 | 4.8 | 8.0 | 0.00 | 0.23 | 0.00 | 95 | 1013.6 |
| 20260510100004 | 22 | 16 | 3.2 | 4.8 | 0.00 | 0.23 | 0.00 | 95 | 1013.5 |
| 20260510094505 | 22 | 16 | 1.6 | 4.8 | 0.00 | 0.23 | 0.00 | 95 | 1013.4 |
| 20260510093002 | 22 | 15 | 3.2 | 6.4 | 0.00 | 0.23 | 0.00 | 95 | 1013.3 |
| 20260510091502 | 22 | 16 | 3.2 | 9.7 | 0.00 | 0.23 | 0.00 | 95 | 1013.2 |
| 20260510084602 | 22 | 15 | 1.6 | 8.0 | 0.00 | 0.23 | 0.00 | 94 | 1013.0 |
| 20260510083059 | 22 | 15 | 6.4 | 9.7 | 0.00 | 0.23 | 0.00 | 94 | 1013.0 |
| 20260510081557 | 22 | 15 | 3.2 | 8.0 | 0.00 | 0.23 | 0.00 | 94 | 1013.2 |
| 20260510080103 | 22 | 15 | 4.8 | 8.0 | 0.00 | 0.23 | 0.00 | 94 | 1013.1 |
| 20260510074555 | 22 | 14 | 1.6 | 6.4 | 0.00 | 0.23 | 0.00 | 93 | 1013.1 |
| 20260510073113 | 23 | 14 | 4.8 | 8.0 | 0.00 | 0.23 | 0.00 | 93 | 1013.1 |
| 20260510071553 | 23 | 15 | 1.6 | 4.8 | 0.00 | 0.23 | 0.00 | 93 | 1013.3 |
| 20260510070057 | 23 | 15 | 1.6 | 4.8 | 0.00 | 0.23 | 0.00 | 93 | 1013.5 |
| 20260510064619 | 23 | 15 | 1.6 | 4.8 | 0.00 | 0.23 | 0.00 | 92 | 1013.7 |
| 20260510063048 | 23 | 15 | 1.6 | 4.8 | 0.00 | 0.23 | 0.00 | 92 | 1013.8 |
| 20260510061546 | 23 | 15 | 1.6 | 3.2 | 0.00 | 0.23 | 0.00 | 92 | 1013.9 |
| 20260510060044 | 23 | 14 | 3.2 | 6.4 | 0.00 | 0.23 | 0.00 | 92 | 1014.0 |
| 20260510054545 | 23 | 15 | 0.0 | 4.8 | 0.00 | 0.23 | 0.00 | 92 | 1014.1 |
| 20260510053044 | 23 | 14 | 3.2 | 6.4 | 0.00 | 0.23 | 0.00 | 92 | 1014.3 |
| 20260510051548 | 23 | 14 | 0.0 | 3.2 | 0.00 | 0.23 | 0.00 | 91 | 1014.6 |
| 20260510050036 | 23 | 13 | 3.2 | 6.4 | 0.00 | 0.23 | 0.00 | 91 | 1014.7 |
| 20260510044534 | 23 | 15 | 1.6 | 6.4 | 0.00 | 0.23 | 0.00 | 91 | 1014.8 |
| 20260510043033 | 23 | 12 | 1.6 | 6.4 | 0.00 | 0.23 | 0.00 | 91 | 1014.7 |
| 20260510041534 | 23 | 11 | 1.6 | 4.8 | 0.00 | 0.23 | 0.00 | 91 | 1014.8 |
| 20260510040028 | 23 | 11 | 0.0 | 3.2 | 0.00 | 0.23 | 0.00 | 91 | 1014.8 |
| 20260510034528 | 23 | 12 | 1.6 | 4.8 | 0.00 | 0.23 | 0.23 | 91 | 1014.7 |
| 20260510033026 | 23 | 13 | 1.6 | 6.4 | 0.00 | 0.23 | 0.23 | 91 | 1014.6 |
| 20260510031530 | 24 | 11 | 1.6 | 4.8 | 0.00 | 0.23 | 0.23 | 91 | 1014.6 |
| 20260510030024 | 24 | 11 | 1.6 | 8.0 | 0.00 | 0.23 | 0.23 | 91 | 1014.8 |
| 20260510024524 | 24 | 12 | 3.2 | 8.0 | 0.00 | 0.23 | 0.23 | 91 | 1014.6 |
| 20260510023024 | 24 | 11 | 1.6 | 6.4 | 0.00 | 0.23 | 0.23 | 90 | 1014.7 |
| 20260510021529 | 24 | 11 | 3.2 | 6.4 | 0.00 | 0.23 | 0.23 | 90 | 1014.7 |
| 20260510020027 | 24 | 11 | 4.8 | 8.0 | 0.00 | 0.23 | 0.23 | 90 | 1014.5 |
| 20260510014521 | 24 | 11 | 4.8 | 8.0 | 0.00 | 0.23 | 0.23 | 90 | 1014.2 |
| 20260510013020 | 24 | 11 | 3.2 | 6.4 | 0.00 | 0.23 | 0.23 | 90 | 1014.1 |
| 20260510011519 | 24 | 11 | 4.8 | 6.4 | 0.00 | 0.23 | 0.23 | 90 | 1014.2 |
| 20260510010019 | 24 | 9 | 1.6 | 8.0 | 0.00 | 0.23 | 0.23 | 90 | 1014.2 |
| 20260510004519 | 24 | 10 | 3.2 | 9.7 | 0.00 | 0.25 | 0.23 | 90 | 1013.7 |
| 20260510003018 | 24 | 9 | 4.8 | 8.0 | 0.00 | 0.25 | 0.23 | 91 | 1013.5 |
| 20260510001517 | 24 | 9 | 1.6 | 6.4 | 0.00 | 0.25 | 0.23 | 91 | 1013.4 |
| 20260510000019 | 24 | 10 | 4.8 | 9.7 | 0.00 | 0.25 | 0.23 | 90 | 1013.4 |
| 20260509234515 | 24 | 10 | 8.0 | 12.9 | 0.00 | 2.11 | 0.23 | 90 | 1013.1 |
| 20260509233018 | 25 | 9 | 4.8 | 12.9 | 0.00 | 2.11 | 0.23 | 89 | 1013.0 |
| 20260509231513 | 24 | 9 | 3.2 | 12.9 | 0.15 | 2.11 | 0.23 | 89 | 1012.8 |
| 20260509230011 | 24 | 9 | 9.7 | 14.5 | 0.18 | 2.11 | 0.23 | 88 | 1012.6 |
| 20260509224512 | 24 | 10 | 4.8 | 9.7 | 0.18 | 2.11 | 0.23 | 87 | 1012.6 |
| 20260509223011 | 24 | 10 | 4.8 | 9.7 | 0.18 | 2.11 | 0.23 | 86 | 1012.7 |
| 20260509221510 | 25 | 10 | 4.8 | 14.5 | 0.05 | 1.96 | 0.08 | 85 | 1012.9 |
| 20260509220009 | 25 | 19 | 0.0 | 6.4 | 0.03 | 1.93 | 0.05 | 82 | 1013.1 |
| 20260509214508 | 25 | 19 | 4.8 | 17.7 | 0.05 | 1.93 | 0.05 | 81 | 1012.7 |
| 20260509213012 | 25 | 9 | 1.6 | 16.1 | 0.05 | 1.93 | 0.05 | 80 | 1012.4 |
| 20260509211508 | 25 | 5 | 9.7 | 19.3 | 0.03 | 1.91 | 0.03 | 82 | 1012.1 |
| 20260509210007 | 26 | 9 | 12.9 | 19.3 | 0.03 | 1.91 | 0.03 | 82 | 1012.0 |
| 20260509204511 | 27 | 9 | 11.3 | 22.5 | 0.00 | 1.88 | 0.00 | 77 | 1012.1 |
| 20260509203018 | 27 | 10 | 14.5 | 24.1 | 0.00 | 1.88 | 0.00 | 76 | 1011.9 |
| 20260509201505 | 27 | 11 | 8.0 | 17.7 | 0.00 | 1.88 | 0.00 | 77 | 1011.5 |
| 20260509200004 | 28 | 12 | 11.3 | 19.3 | 0.00 | 1.88 | 0.00 | 77 | 1011.4 |
| 20260509194504 | 27 | 11 | 12.9 | 20.9 | 0.00 | 1.88 | 0.00 | 78 | 1011.5 |